| time (UTC) | temp F | wind direction | speed MPH | gust MPH | rain 1hr in | rain 24hr in | rain mn in | humidity % | barometer mb |
| 20260906234020 | 73 | 86 | 0.0 | 0.0 | 0.00 | 0.01 | 0.01 | 74 | 1014.4 |
| 20260906233513 | 73 | 86 | 0.0 | 0.0 | 0.00 | 0.01 | 0.01 | 74 | 1014.3 |
| 20260906233008 | 74 | 86 | 0.0 | 0.0 | 0.00 | 0.01 | 0.01 | 73 | 1014.4 |
| 20260906232502 | 74 | 86 | 0.0 | 0.0 | 0.00 | 0.01 | 0.01 | 72 | 1014.3 |
| 20260906231956 | 74 | 86 | 0.0 | 0.0 | 0.00 | 0.01 | 0.01 | 71 | 1014.2 |
| 20260906231450 | 75 | 86 | 0.0 | 0.0 | 0.00 | 0.01 | 0.01 | 70 | 1014.2 |
| 20260906230944 | 75 | 88 | 1.0 | 4.0 | 0.00 | 0.01 | 0.01 | 71 | 1014.1 |
| 20260906230440 | 76 | 83 | 2.0 | 4.0 | 0.00 | 0.01 | 0.01 | 70 | 1014.2 |
| 20260906225932 | 76 | 68 | 2.0 | 4.0 | 0.00 | 0.01 | 0.01 | 69 | 1014.1 |
| 20260906225427 | 76 | 59 | 2.0 | 4.0 | 0.00 | 0.01 | 0.01 | 68 | 1014.0 |
| 20260906225143 | 77 | 53 | 2.0 | 4.0 | 0.00 | 0.01 | 0.01 | 69 | 1013.9 |
| 20260906224413 | 78 | 71 | 3.0 | 5.0 | 0.00 | 0.01 | 0.01 | 68 | 1013.8 |
| 20260906223908 | 78 | 94 | 3.0 | 6.0 | 0.00 | 0.01 | 0.01 | 67 | 1013.8 |
| 20260906223402 | 78 | 37 | 4.0 | 8.0 | 0.00 | 0.01 | 0.01 | 66 | 1013.8 |
| 20260906222857 | 79 | 54 | 4.0 | 9.0 | 0.00 | 0.01 | 0.01 | 63 | 1013.8 |
| 20260906222350 | 79 | 45 | 4.0 | 9.0 | 0.00 | 0.01 | 0.01 | 63 | 1013.9 |
| 20260906221843 | 80 | 48 | 5.0 | 12.0 | 0.00 | 0.01 | 0.01 | 61 | 1013.8 |
| 20260906221339 | 80 | 51 | 6.0 | 12.0 | 0.00 | 0.01 | 0.01 | 59 | 1013.7 |
| 20260906220832 | 80 | 55 | 6.0 | 11.0 | 0.00 | 0.01 | 0.01 | 59 | 1013.8 |
| 20260906220542 | 80 | 43 | 6.0 | 11.0 | 0.00 | 0.01 | 0.01 | 58 | 1013.8 |
| 20260906215822 | 80 | 70 | 6.0 | 11.0 | 0.00 | 0.01 | 0.01 | 59 | 1013.8 |
| 20260906215533 | 80 | 47 | 7.0 | 11.0 | 0.00 | 0.01 | 0.01 | 58 | 1013.7 |
| 20260906214807 | 81 | 59 | 6.0 | 10.0 | 0.00 | 0.01 | 0.01 | 56 | 1013.7 |
| 20260906214301 | 81 | 46 | 5.0 | 10.0 | 0.00 | 0.01 | 0.01 | 56 | 1013.6 |
| 20260906213755 | 81 | 48 | 6.0 | 12.0 | 0.00 | 0.01 | 0.01 | 57 | 1013.6 |
| 20260906213250 | 81 | 94 | 6.0 | 12.0 | 0.00 | 0.01 | 0.01 | 57 | 1013.6 |
| 20260906212744 | 81 | 47 | 5.0 | 10.0 | 0.00 | 0.01 | 0.01 | 59 | 1013.6 |
| 20260906212237 | 81 | 53 | 7.0 | 13.0 | 0.00 | 0.01 | 0.01 | 57 | 1013.6 |
| 20260906211731 | 81 | 51 | 7.0 | 13.0 | 0.00 | 0.01 | 0.01 | 56 | 1013.7 |
| 20260906211225 | 81 | 52 | 5.0 | 14.0 | 0.00 | 0.01 | 0.01 | 60 | 1013.6 |
| 20260906210719 | 81 | 95 | 7.0 | 14.0 | 0.00 | 0.01 | 0.01 | 58 | 1013.7 |
| 20260906210214 | 82 | 51 | 7.0 | 12.0 | 0.00 | 0.01 | 0.01 | 57 | 1013.7 |
| 20260906205709 | 82 | 36 | 7.0 | 12.0 | 0.00 | 0.01 | 0.01 | 57 | 1013.7 |
| 20260906205210 | 82 | 50 | 6.0 | 12.0 | 0.00 | 0.01 | 0.01 | 60 | 1013.7 |
| 20260906204708 | 82 | 49 | 7.0 | 12.0 | 0.00 | 0.01 | 0.01 | 59 | 1013.7 |
| 20260906204207 | 82 | 51 | 8.0 | 13.0 | 0.00 | 0.01 | 0.01 | 60 | 1013.6 |
| 20260906203704 | 82 | 50 | 7.0 | 14.0 | 0.00 | 0.01 | 0.01 | 59 | 1013.6 |
| 20260906203644 | 82 | 53 | 7.0 | 14.0 | 0.00 | 0.01 | 0.01 | 59 | 1013.7 |
| 20260906202704 | 82 | 58 | 7.0 | 13.0 | 0.00 | 0.01 | 0.01 | 61 | 1013.6 |
| 20260906202204 | 82 | 51 | 6.0 | 13.0 | 0.00 | 0.01 | 0.01 | 58 | 1013.7 |
| 20260906201925 | 82 | 101 | 5.0 | 10.0 | 0.00 | 0.01 | 0.01 | 62 | 1013.6 |
| 20260906201204 | 82 | 49 | 5.0 | 13.0 | 0.00 | 0.01 | 0.01 | 61 | 1013.6 |
| 20260906200703 | 82 | 78 | 6.0 | 13.0 | 0.00 | 0.01 | 0.01 | 60 | 1013.6 |
| 20260906200200 | 82 | 91 | 8.0 | 15.0 | 0.00 | 0.01 | 0.01 | 60 | 1013.7 |
| 20260906195700 | 82 | 49 | 9.0 | 18.0 | 0.00 | 0.01 | 0.01 | 62 | 1013.6 |
| 20260906195201 | 82 | 42 | 9.0 | 18.0 | 0.00 | 0.01 | 0.01 | 61 | 1013.6 |
| 20260906194700 | 82 | 58 | 8.0 | 13.0 | 0.00 | 0.01 | 0.01 | 62 | 1013.7 |
| 20260906194200 | 82 | 45 | 7.0 | 13.0 | 0.00 | 0.01 | 0.01 | 58 | 1013.7 |
| 20260906193702 | 82 | 111 | 7.0 | 12.0 | 0.00 | 0.01 | 0.01 | 62 | 1013.6 |
| 20260906193202 | 82 | 90 | 8.0 | 13.0 | 0.00 | 0.01 | 0.01 | 60 | 1013.7 |
| 20260906192656 | 82 | 64 | 8.0 | 13.0 | 0.00 | 0.01 | 0.01 | 61 | 1013.7 |
| 20260906192149 | 82 | 58 | 6.0 | 13.0 | 0.00 | 0.01 | 0.01 | 61 | 1013.6 |
| 20260906191903 | 81 | 47 | 6.0 | 14.0 | 0.00 | 0.01 | 0.01 | 65 | 1013.6 |
| 20260906191137 | 81 | 63 | 6.0 | 14.0 | 0.00 | 0.01 | 0.01 | 63 | 1013.6 |
| 20260906190631 | 81 | 55 | 6.0 | 12.0 | 0.00 | 0.01 | 0.01 | 64 | 1013.7 |
| 20260906190349 | 81 | 84 | 6.0 | 11.0 | 0.00 | 0.01 | 0.01 | 62 | 1013.6 |
| 20260906185622 | 82 | 51 | 6.0 | 11.0 | 0.00 | 0.01 | 0.01 | 63 | 1013.6 |
| 20260906185123 | 82 | 28 | 8.0 | 15.0 | 0.00 | 0.01 | 0.01 | 60 | 1013.7 |
| 20260906184624 | 82 | 76 | 7.0 | 15.0 | 0.00 | 0.01 | 0.01 | 62 | 1013.8 |
| 20260906184122 | 82 | 55 | 5.0 | 13.0 | 0.00 | 0.01 | 0.01 | 60 | 1013.7 |
| 20260906183623 | 82 | 61 | 4.0 | 13.0 | 0.00 | 0.01 | 0.01 | 62 | 1013.7 |
| 20260906183123 | 82 | 99 | 5.0 | 13.0 | 0.00 | 0.01 | 0.01 | 60 | 1013.8 |
| 20260906182622 | 82 | 47 | 6.0 | 13.0 | 0.00 | 0.01 | 0.01 | 60 | 1013.8 |
| 20260906182123 | 83 | 41 | 6.0 | 13.0 | 0.00 | 0.01 | 0.01 | 59 | 1013.9 |
| 20260906181624 | 82 | 37 | 6.0 | 13.0 | 0.00 | 0.01 | 0.01 | 59 | 1013.9 |
| 20260906181121 | 82 | 53 | 6.0 | 12.0 | 0.00 | 0.01 | 0.01 | 61 | 1013.8 |
| 20260906180622 | 82 | 34 | 7.0 | 14.0 | 0.00 | 0.01 | 0.01 | 60 | 1013.8 |
| 20260906180124 | 83 | 47 | 7.0 | 14.0 | 0.00 | 0.02 | 0.01 | 55 | 1013.9 |
| 20260906180108 | 83 | 44 | 5.0 | 11.0 | 0.00 | 0.05 | 0.01 | 55 | 1013.8 |
| 20260906175119 | 83 | 40 | 5.0 | 15.0 | 0.00 | 0.14 | 0.01 | 58 | 1013.8 |
| 20260906174620 | 82 | 17 | 5.0 | 15.0 | 0.00 | 0.21 | 0.01 | 56 | 1013.8 |
| 20260906174120 | 82 | 41 | 6.0 | 11.0 | 0.00 | 0.21 | 0.01 | 57 | 1013.8 |
| 20260906173845 | 82 | 64 | 5.0 | 10.0 | 0.00 | 0.21 | 0.01 | 60 | 1013.7 |
| 20260906173118 | 82 | 44 | 6.0 | 11.0 | 0.00 | 0.21 | 0.01 | 61 | 1013.9 |
| 20260906172618 | 82 | 41 | 6.0 | 11.0 | 0.00 | 0.21 | 0.01 | 57 | 1013.9 |
| 20260906172118 | 82 | 59 | 5.0 | 9.0 | 0.00 | 0.23 | 0.01 | 56 | 1014.1 |
| 20260906171839 | 82 | 109 | 6.0 | 11.0 | 0.00 | 0.23 | 0.01 | 59 | 1014.0 |
| 20260906171118 | 82 | 50 | 7.0 | 13.0 | 0.00 | 0.23 | 0.01 | 59 | 1014.0 |
| 20260906170618 | 82 | 53 | 5.0 | 13.0 | 0.00 | 0.23 | 0.01 | 57 | 1014.0 |
| 20260906170452 | 83 | 65 | 4.0 | 10.0 | 0.00 | 0.23 | 0.01 | 57 | 1014.0 |
| 20260906170332 | 83 | 36 | 3.0 | 12.0 | 0.00 | 0.23 | 0.01 | 57 | 1014.1 |
| 20260906165118 | 83 | 267 | 3.0 | 12.0 | 0.00 | 0.23 | 0.01 | 55 | 1014.2 |
| 20260906164619 | 83 | 276 | 3.0 | 10.0 | 0.00 | 0.23 | 0.01 | 58 | 1014.2 |
| 20260906164118 | 83 | 300 | 4.0 | 10.0 | 0.00 | 0.23 | 0.01 | 59 | 1014.2 |
| 20260906163842 | 82 | 355 | 5.0 | 10.0 | 0.00 | 0.23 | 0.01 | 56 | 1014.3 |
| 20260906162616 | 82 | 49 | 5.0 | 10.0 | 0.00 | 0.23 | 0.01 | 55 | 1014.4 |
| 20260906162112 | 83 | 36 | 4.0 | 8.0 | 0.00 | 0.23 | 0.01 | 56 | 1014.4 |
| 20260906161606 | 83 | 36 | 4.0 | 8.0 | 0.00 | 0.23 | 0.01 | 58 | 1014.4 |
| 20260906161059 | 82 | 320 | 4.0 | 9.0 | 0.00 | 0.23 | 0.01 | 58 | 1014.4 |
| 20260906160554 | 82 | 80 | 3.0 | 9.0 | 0.00 | 0.23 | 0.01 | 57 | 1014.4 |
| 20260906155540 | 82 | 45 | 4.0 | 11.0 | 0.00 | 0.23 | 0.01 | 59 | 1014.4 |
| 20260906155035 | 82 | 48 | 4.0 | 12.0 | 0.00 | 0.23 | 0.01 | 60 | 1014.4 |
| 20260906154529 | 81 | 187 | 5.0 | 12.0 | 0.00 | 0.23 | 0.01 | 64 | 1014.4 |
| 20260906154024 | 81 | 61 | 4.0 | 10.0 | 0.00 | 0.23 | 0.01 | 61 | 1014.4 |
| 20260906153517 | 81 | 0 | 4.0 | 7.0 | 0.00 | 0.23 | 0.01 | 64 | 1014.5 |
| 20260906153012 | 80 | 61 | 3.0 | 6.0 | 0.00 | 0.23 | 0.01 | 64 | 1014.5 |
| 20260906152506 | 81 | 17 | 3.0 | 6.0 | 0.00 | 0.23 | 0.01 | 64 | 1014.5 |
| 20260906151959 | 80 | 25 | 3.0 | 11.0 | 0.00 | 0.23 | 0.01 | 64 | 1014.5 |
| 20260906151714 | 80 | 30 | 6.0 | 14.0 | 0.00 | 0.23 | 0.01 | 65 | 1014.5 |
| 20260906150948 | 80 | 50 | 5.0 | 14.0 | 0.00 | 0.23 | 0.01 | 66 | 1014.4 |
| 20260906150702 | 80 | 53 | 2.0 | 10.0 | 0.00 | 0.23 | 0.01 | 68 | 1014.3 |
| 20260906145934 | 80 | 38 | 3.0 | 6.0 | 0.00 | 0.23 | 0.01 | 69 | 1014.2 |
| 20260906145428 | 80 | 34 | 3.0 | 6.0 | 0.00 | 0.23 | 0.01 | 68 | 1014.2 |
| 20260906144924 | 80 | 3 | 3.0 | 8.0 | 0.00 | 0.23 | 0.01 | 70 | 1014.2 |
| 20260906144417 | 79 | 13 | 4.0 | 9.0 | 0.00 | 0.23 | 0.01 | 68 | 1014.2 |
| 20260906143911 | 79 | 53 | 4.0 | 9.0 | 0.00 | 0.23 | 0.01 | 69 | 1014.2 |
| 20260906143627 | 79 | 345 | 3.0 | 9.0 | 0.00 | 0.23 | 0.01 | 70 | 1014.3 |
| 20260906142900 | 79 | 30 | 2.0 | 6.0 | 0.00 | 0.23 | 0.01 | 72 | 1014.1 |
| 20260906142400 | 78 | 29 | 2.0 | 6.0 | 0.00 | 0.23 | 0.01 | 71 | 1014.0 |
| 20260906141900 | 78 | 29 | 1.0 | 6.0 | 0.00 | 0.23 | 0.01 | 73 | 1014.2 |
| 20260906141359 | 78 | 47 | 3.0 | 8.0 | 0.00 | 0.23 | 0.01 | 73 | 1014.0 |
| 20260906140857 | 78 | 116 | 4.0 | 11.0 | 0.00 | 0.23 | 0.01 | 72 | 1014.0 |
| 20260906140358 | 78 | 332 | 5.0 | 11.0 | 0.00 | 0.23 | 0.01 | 71 | 1013.9 |
| 20260906135858 | 79 | 35 | 4.0 | 10.0 | 0.00 | 0.23 | 0.01 | 71 | 1013.8 |
| 20260906135358 | 79 | 355 | 3.0 | 9.0 | 0.00 | 0.23 | 0.01 | 72 | 1013.9 |
| 20260906134857 | 78 | 66 | 2.0 | 6.0 | 0.00 | 0.23 | 0.01 | 75 | 1013.8 |
| 20260906134352 | 77 | 42 | 3.0 | 6.0 | 0.00 | 0.23 | 0.01 | 76 | 1013.8 |
| 20260906133845 | 77 | 51 | 2.0 | 5.0 | 0.00 | 0.23 | 0.01 | 77 | 1013.8 |
| 20260906133339 | 77 | 3 | 3.0 | 9.0 | 0.00 | 0.23 | 0.01 | 77 | 1013.8 |
| 20260906132833 | 77 | 35 | 3.0 | 9.0 | 0.00 | 0.23 | 0.01 | 79 | 1013.9 |
| 20260906132328 | 76 | 45 | 3.0 | 6.0 | 0.00 | 0.23 | 0.01 | 79 | 1013.7 |
| 20260906131820 | 76 | 38 | 2.0 | 6.0 | 0.00 | 0.23 | 0.01 | 80 | 1013.6 |
| 20260906131314 | 76 | 14 | 2.0 | 4.0 | 0.00 | 0.23 | 0.01 | 82 | 1013.7 |
| 20260906130810 | 76 | 52 | 2.0 | 5.0 | 0.00 | 0.23 | 0.01 | 86 | 1013.6 |
| 20260906130533 | 75 | 319 | 2.0 | 6.0 | 0.00 | 0.23 | 0.01 | 90 | 1013.6 |
| 20260906125757 | 74 | 31 | 1.0 | 5.0 | 0.00 | 0.23 | 0.01 | 92 | 1013.4 |
| 20260906125254 | 74 | 334 | 0.0 | 3.0 | 0.00 | 0.23 | 0.01 | 92 | 1013.4 |
| 20260906124744 | 74 | 311 | 0.0 | 1.0 | 0.00 | 0.23 | 0.01 | 92 | 1013.5 |
| 20260906124239 | 74 | 223 | 0.0 | 0.0 | 0.00 | 0.23 | 0.01 | 92 | 1013.5 |
| 20260906123733 | 73 | 223 | 0.0 | 0.0 | 0.00 | 0.23 | 0.01 | 92 | 1013.6 |
| 20260906123226 | 74 | 223 | 0.0 | 0.0 | 0.00 | 0.23 | 0.01 | 92 | 1013.5 |
| 20260906122721 | 73 | 222 | 0.0 | 0.0 | 0.00 | 0.23 | 0.01 | 93 | 1013.6 |
| 20260906122434 | 73 | 223 | 0.0 | 0.0 | 0.00 | 0.23 | 0.01 | 92 | 1013.5 |
| 20260906121710 | 73 | 223 | 0.0 | 0.0 | 0.00 | 0.23 | 0.01 | 92 | 1013.6 |
| 20260906121203 | 73 | 221 | 0.0 | 0.0 | 0.00 | 0.23 | 0.01 | 92 | 1013.6 |
| 20260906120913 | 73 | 219 | 0.0 | 0.0 | 0.00 | 0.23 | 0.01 | 92 | 1013.5 |
| 20260906120151 | 73 | 218 | 0.0 | 0.0 | 0.00 | 0.23 | 0.01 | 92 | 1013.2 |
| 20260906115645 | 73 | 282 | 0.0 | 0.0 | 0.00 | 0.23 | 0.01 | 93 | 1013.1 |
| 20260906115138 | 73 | 282 | 0.0 | 0.0 | 0.00 | 0.23 | 0.01 | 92 | 1013.2 |
| 20260906114633 | 72 | 282 | 0.0 | 0.0 | 0.00 | 0.23 | 0.01 | 92 | 1013.2 |
| 20260906114126 | 72 | 282 | 0.0 | 0.0 | 0.00 | 0.23 | 0.01 | 92 | 1013.1 |
| 20260906113621 | 72 | 282 | 0.0 | 0.0 | 0.01 | 0.23 | 0.01 | 92 | 1013.0 |
| 20260906113115 | 72 | 284 | 0.0 | 0.0 | 0.01 | 0.23 | 0.01 | 92 | 1013.0 |
| 20260906112610 | 72 | 282 | 0.0 | 0.0 | 0.01 | 0.23 | 0.01 | 92 | 1012.9 |
| 20260906112103 | 72 | 282 | 0.0 | 0.0 | 0.01 | 0.23 | 0.01 | 92 | 1012.9 |
| 20260906111556 | 72 | 282 | 0.0 | 0.0 | 0.01 | 0.23 | 0.01 | 92 | 1012.8 |
| 20260906111050 | 72 | 282 | 0.0 | 0.0 | 0.01 | 0.23 | 0.01 | 92 | 1012.7 |
| 20260906110546 | 72 | 282 | 0.0 | 0.0 | 0.01 | 0.23 | 0.01 | 92 | 1012.7 |
| 20260906110530 | 72 | 282 | 0.0 | 0.0 | 0.01 | 0.23 | 0.01 | 92 | 1012.6 |
| 20260906105533 | 72 | 282 | 0.0 | 0.0 | 0.01 | 0.23 | 0.01 | 92 | 1012.5 |
| 20260906105029 | 72 | 282 | 0.0 | 0.0 | 0.01 | 0.23 | 0.01 | 92 | 1012.4 |
| 20260906104520 | 72 | 282 | 0.0 | 0.0 | 0.01 | 0.23 | 0.01 | 92 | 1012.4 |
| 20260906104014 | 72 | 282 | 0.0 | 0.0 | 0.01 | 0.23 | 0.01 | 92 | 1012.3 |
| 20260906103732 | 72 | 282 | 0.0 | 0.0 | 0.00 | 0.22 | 0.00 | 92 | 1012.2 |
| 20260906103005 | 72 | 282 | 0.0 | 0.0 | 0.00 | 0.22 | 0.00 | 92 | 1012.2 |
| 20260906102458 | 72 | 282 | 0.0 | 0.0 | 0.00 | 0.22 | 0.00 | 92 | 1012.1 |
| 20260906101952 | 72 | 282 | 0.0 | 0.0 | 0.00 | 0.22 | 0.00 | 92 | 1012.1 |
| 20260906101447 | 72 | 282 | 0.0 | 0.0 | 0.00 | 0.22 | 0.00 | 92 | 1012.2 |
| 20260906100951 | 72 | 282 | 0.0 | 0.0 | 0.00 | 0.22 | 0.00 | 92 | 1012.2 |
| 20260906100433 | 72 | 282 | 0.0 | 0.0 | 0.00 | 0.22 | 0.00 | 92 | 1012.1 |
| 20260906095926 | 72 | 282 | 0.0 | 0.0 | 0.00 | 0.22 | 0.00 | 92 | 1012.1 |
| 20260906095420 | 72 | 282 | 0.0 | 0.0 | 0.00 | 0.22 | 0.00 | 92 | 1012.0 |
| 20260906094915 | 72 | 282 | 0.0 | 0.0 | 0.00 | 0.22 | 0.00 | 92 | 1012.0 |
| 20260906094410 | 72 | 282 | 0.0 | 0.0 | 0.00 | 0.22 | 0.00 | 92 | 1011.9 |
| 20260906093903 | 72 | 282 | 0.0 | 0.0 | 0.00 | 0.22 | 0.00 | 92 | 1011.9 |
| 20260906093403 | 72 | 282 | 0.0 | 0.0 | 0.00 | 0.22 | 0.00 | 92 | 1011.9 |
| 20260906092901 | 72 | 282 | 0.0 | 0.0 | 0.00 | 0.22 | 0.00 | 92 | 1011.9 |
| 20260906092619 | 72 | 282 | 0.0 | 0.0 | 0.00 | 0.22 | 0.00 | 92 | 1011.7 |
| 20260906091857 | 72 | 282 | 0.0 | 0.0 | 0.00 | 0.22 | 0.00 | 92 | 1011.6 |
| 20260906091354 | 72 | 282 | 0.0 | 0.0 | 0.00 | 0.22 | 0.00 | 92 | 1011.6 |
| 20260906090853 | 72 | 282 | 0.0 | 0.0 | 0.00 | 0.22 | 0.00 | 92 | 1011.6 |
| 20260906090350 | 72 | 282 | 0.0 | 0.0 | 0.00 | 0.22 | 0.00 | 92 | 1011.6 |
| 20260906085849 | 72 | 282 | 0.0 | 0.0 | 0.00 | 0.22 | 0.00 | 92 | 1011.5 |
| 20260906085613 | 72 | 282 | 0.0 | 0.0 | 0.00 | 0.22 | 0.00 | 92 | 1011.5 |
| 20260906084850 | 72 | 282 | 0.0 | 0.0 | 0.00 | 0.22 | 0.00 | 92 | 1011.6 |
| 20260906084350 | 72 | 282 | 0.0 | 0.0 | 0.00 | 0.22 | 0.00 | 92 | 1011.6 |
| 20260906083848 | 72 | 282 | 0.0 | 0.0 | 0.00 | 0.22 | 0.00 | 92 | 1011.5 |
| 20260906083549 | 72 | 282 | 0.0 | 0.0 | 0.00 | 0.22 | 0.00 | 92 | 1011.5 |
| 20260906083437 | 72 | 282 | 0.0 | 0.0 | 0.00 | 0.22 | 0.00 | 92 | 1011.5 |
| 20260906082348 | 71 | 282 | 0.0 | 0.0 | 0.00 | 0.22 | 0.00 | 92 | 1011.4 |
| 20260906081848 | 71 | 282 | 0.0 | 0.0 | 0.00 | 0.22 | 0.00 | 92 | 1011.5 |
| 20260906081348 | 71 | 284 | 0.0 | 0.0 | 0.00 | 0.22 | 0.00 | 92 | 1011.3 |
| 20260906080851 | 71 | 282 | 0.0 | 0.0 | 0.00 | 0.22 | 0.00 | 92 | 1011.3 |
| 20260906080350 | 71 | 281 | 0.0 | 0.0 | 0.00 | 0.22 | 0.00 | 92 | 1011.3 |
| 20260906075851 | 71 | 282 | 0.0 | 0.0 | 0.00 | 0.22 | 0.00 | 92 | 1011.1 |
| 20260906075350 | 71 | 282 | 0.0 | 0.0 | 0.00 | 0.22 | 0.00 | 92 | 1011.0 |
| 20260906074850 | 71 | 282 | 0.0 | 0.0 | 0.00 | 0.22 | 0.00 | 92 | 1011.0 |
| 20260906074349 | 71 | 282 | 0.0 | 0.0 | 0.00 | 0.22 | 0.00 | 92 | 1010.9 |
| 20260906074111 | 71 | 282 | 0.0 | 0.0 | 0.00 | 0.22 | 0.00 | 92 | 1010.9 |
| 20260906073349 | 71 | 282 | 0.0 | 0.0 | 0.00 | 0.22 | 0.00 | 91 | 1011.0 |
| 20260906072852 | 71 | 282 | 0.0 | 0.0 | 0.00 | 0.22 | 0.00 | 91 | 1011.0 |
| 20260906072351 | 71 | 282 | 0.0 | 0.0 | 0.00 | 0.22 | 0.00 | 91 | 1011.0 |
| 20260906071851 | 71 | 282 | 0.0 | 0.0 | 0.00 | 0.22 | 0.00 | 91 | 1011.0 |
| 20260906071347 | 71 | 284 | 0.0 | 0.0 | 0.00 | 0.22 | 0.00 | 91 | 1011.0 |
| 20260906070848 | 71 | 283 | 0.0 | 0.0 | 0.00 | 0.22 | 0.00 | 91 | 1011.0 |
| 20260906070346 | 71 | 282 | 0.0 | 0.0 | 0.00 | 0.22 | 0.00 | 91 | 1010.9 |
| 20260906070112 | 71 | 281 | 0.0 | 1.0 | 0.00 | 0.22 | 0.00 | 91 | 1011.0 |
| 20260906065338 | 71 | 282 | 0.0 | 2.0 | 0.00 | 0.22 | 0.00 | 91 | 1010.9 |
| 20260906064832 | 71 | 282 | 0.0 | 2.0 | 0.00 | 0.22 | 0.00 | 91 | 1011.0 |
| 20260906064326 | 71 | 282 | 1.0 | 2.0 | 0.00 | 0.22 | 0.00 | 91 | 1011.1 |
| 20260906064047 | 71 | 282 | 1.0 | 2.0 | 0.00 | 0.22 | 0.00 | 91 | 1011.0 |
| 20260906063314 | 71 | 282 | 0.0 | 2.0 | 0.00 | 0.22 | 0.00 | 91 | 1011.1 |
| 20260906062808 | 71 | 282 | 0.0 | 2.0 | 0.00 | 0.22 | 0.00 | 91 | 1011.1 |
| 20260906062306 | 71 | 282 | 0.0 | 2.0 | 0.00 | 0.22 | 0.00 | 91 | 1011.1 |
| 20260906062022 | 71 | 282 | 0.0 | 0.0 | 0.00 | 0.22 | 0.00 | 91 | 1011.0 |
| 20260906061250 | 71 | 282 | 0.0 | 0.0 | 0.00 | 0.22 | 0.00 | 91 | 1011.0 |
| 20260906060743 | 71 | 282 | 0.0 | 1.0 | 0.00 | 0.22 | 0.00 | 91 | 1011.0 |
| 20260906060239 | 71 | 282 | 0.0 | 1.0 | 0.00 | 0.22 | 0.00 | 91 | 1011.1 |
| 20260906055954 | 71 | 282 | 0.0 | 1.0 | 0.00 | 0.22 | 0.00 | 91 | 1011.3 |
| 20260906055226 | 71 | 282 | 1.0 | 2.0 | 0.00 | 0.22 | 0.00 | 91 | 1011.4 |
| 20260906054721 | 71 | 282 | 1.0 | 2.0 | 0.00 | 0.23 | 0.00 | 91 | 1011.4 |
| 20260906054214 | 72 | 283 | 1.0 | 2.0 | 0.00 | 0.23 | 0.00 | 91 | 1011.5 |
| 20260906053708 | 72 | 282 | 1.0 | 2.0 | 0.00 | 0.23 | 0.00 | 91 | 1011.5 |
| 20260906053201 | 72 | 282 | 1.0 | 2.0 | 0.00 | 0.23 | 0.00 | 91 | 1011.5 |
| 20260906052656 | 72 | 282 | 0.0 | 0.0 | 0.00 | 0.23 | 0.00 | 91 | 1011.4 |
| 20260906052151 | 72 | 282 | 0.0 | 0.0 | 0.00 | 0.23 | 0.00 | 91 | 1011.5 |
| 20260906051646 | 72 | 282 | 0.0 | 0.0 | 0.00 | 0.23 | 0.00 | 91 | 1011.5 |
| 20260906051139 | 72 | 282 | 0.0 | 1.0 | 0.00 | 0.23 | 0.00 | 91 | 1011.6 |
| 20260906050644 | 72 | 282 | 0.0 | 1.0 | 0.00 | 0.23 | 0.00 | 91 | 1011.7 |
| 20260906050126 | 72 | 282 | 0.0 | 1.0 | 0.00 | 0.23 | 0.00 | 91 | 1011.6 |
| 20260906045620 | 72 | 283 | 0.0 | 1.0 | 0.00 | 0.23 | 0.00 | 91 | 1011.6 |
| 20260906045605 | 72 | 282 | 0.0 | 0.0 | 0.00 | 0.23 | 0.00 | 91 | 1011.6 |
| 20260906044611 | 72 | 282 | 0.0 | 0.0 | 0.00 | 0.23 | 0.00 | 90 | 1011.7 |
| 20260906044320 | 72 | 282 | 0.0 | 0.0 | 0.00 | 0.23 | 0.00 | 90 | 1011.5 |
| 20260906043556 | 72 | 282 | 0.0 | 0.0 | 0.00 | 0.23 | 0.00 | 90 | 1011.6 |
| 20260906043049 | 73 | 282 | 0.0 | 0.0 | 0.00 | 0.23 | 0.00 | 91 | 1011.6 |
| 20260906042544 | 73 | 282 | 0.0 | 0.0 | 0.00 | 0.23 | 0.00 | 91 | 1011.6 |
| 20260906042037 | 73 | 282 | 0.0 | 0.0 | 0.00 | 0.23 | 0.00 | 91 | 1011.5 |
| 20260906041532 | 73 | 282 | 0.0 | 0.0 | 0.00 | 0.23 | 0.00 | 90 | 1011.6 |
| 20260906041248 | 73 | 283 | 0.0 | 1.0 | 0.00 | 0.23 | 0.00 | 90 | 1011.6 |
| 20260906040519 | 73 | 282 | 0.0 | 1.0 | 0.00 | 0.23 | 0.00 | 90 | 1011.7 |
| 20260906040014 | 73 | 282 | 1.0 | 1.0 | 0.00 | 0.23 | 0.00 | 90 | 1011.7 |
| 20260906035509 | 73 | 282 | 1.0 | 1.0 | 0.00 | 0.23 | 0.23 | 90 | 1011.7 |
| 20260906035010 | 74 | 282 | 0.0 | 3.0 | 0.00 | 0.23 | 0.23 | 90 | 1011.8 |
| 20260906034510 | 74 | 282 | 0.0 | 3.0 | 0.00 | 0.23 | 0.23 | 90 | 1011.7 |
| 20260906034009 | 74 | 336 | 0.0 | 0.0 | 0.00 | 0.23 | 0.23 | 90 | 1011.8 |
| 20260906033508 | 74 | 336 | 0.0 | 0.0 | 0.00 | 0.23 | 0.23 | 90 | 1011.9 |
| 20260906033009 | 74 | 336 | 0.0 | 0.0 | 0.00 | 0.23 | 0.23 | 90 | 1011.9 |
| 20260906032508 | 74 | 338 | 0.0 | 0.0 | 0.00 | 0.23 | 0.23 | 90 | 1011.8 |
| 20260906032009 | 74 | 334 | 0.0 | 0.0 | 0.00 | 0.23 | 0.23 | 91 | 1011.9 |
| 20260906031508 | 74 | 350 | 0.0 | 0.0 | 0.00 | 0.23 | 0.23 | 91 | 1012.0 |
| 20260906031009 | 74 | 334 | 0.0 | 0.0 | 0.00 | 0.23 | 0.23 | 91 | 1012.0 |
| 20260906030520 | 74 | 334 | 0.0 | 0.0 | 0.00 | 0.23 | 0.23 | 91 | 1012.0 |
| 20260906030015 | 74 | 350 | 0.0 | 0.0 | 0.00 | 0.23 | 0.23 | 91 | 1012.1 |
| 20260906025519 | 74 | 334 | 0.0 | 0.0 | 0.00 | 0.23 | 0.23 | 90 | 1012.0 |
| 20260906025007 | 74 | 334 | 0.0 | 0.0 | 0.00 | 0.23 | 0.23 | 90 | 1011.9 |
| 20260906024506 | 74 | 350 | 0.0 | 0.0 | 0.00 | 0.23 | 0.23 | 90 | 1012.0 |
| 20260906024231 | 74 | 334 | 0.0 | 0.0 | 0.00 | 0.23 | 0.23 | 90 | 1012.1 |
| 20260906023505 | 74 | 334 | 0.0 | 0.0 | 0.00 | 0.23 | 0.23 | 90 | 1012.0 |
| 20260906022957 | 74 | 334 | 0.0 | 0.0 | 0.00 | 0.23 | 0.23 | 90 | 1012.2 |
| 20260906022452 | 75 | 334 | 0.0 | 0.0 | 0.00 | 0.23 | 0.23 | 90 | 1012.2 |
| 20260906021947 | 74 | 350 | 0.0 | 0.0 | 0.00 | 0.23 | 0.23 | 90 | 1012.1 |
| 20260906021440 | 74 | 334 | 0.0 | 0.0 | 0.00 | 0.23 | 0.23 | 90 | 1012.0 |
| 20260906020934 | 75 | 334 | 0.0 | 0.0 | 0.00 | 0.23 | 0.23 | 90 | 1012.0 |
| 20260906020427 | 75 | 334 | 0.0 | 0.0 | 0.00 | 0.23 | 0.23 | 90 | 1011.9 |
| 20260906015924 | 75 | 334 | 0.0 | 0.0 | 0.00 | 0.23 | 0.23 | 90 | 1011.9 |
| 20260906015415 | 75 | 334 | 0.0 | 0.0 | 0.00 | 0.23 | 0.23 | 90 | 1011.9 |
| 20260906014925 | 75 | 334 | 0.0 | 0.0 | 0.00 | 0.23 | 0.23 | 90 | 1011.9 |
| 20260906014404 | 75 | 334 | 0.0 | 0.0 | 0.00 | 0.23 | 0.23 | 90 | 1011.7 |
| 20260906013859 | 75 | 334 | 0.0 | 0.0 | 0.00 | 0.23 | 0.23 | 90 | 1011.8 |
| 20260906013352 | 75 | 350 | 0.0 | 0.0 | 0.00 | 0.23 | 0.23 | 90 | 1011.9 |
| 20260906013111 | 75 | 334 | 0.0 | 0.0 | 0.00 | 0.23 | 0.23 | 90 | 1011.9 |
| 20260906012341 | 75 | 334 | 0.0 | 0.0 | 0.00 | 0.23 | 0.23 | 90 | 1011.7 |
| 20260906011833 | 75 | 350 | 0.0 | 0.0 | 0.00 | 0.23 | 0.23 | 90 | 1011.7 |
| 20260906011328 | 75 | 334 | 0.0 | 0.0 | 0.00 | 0.23 | 0.23 | 90 | 1011.7 |
| 20260906010821 | 75 | 334 | 0.0 | 0.0 | 0.00 | 0.23 | 0.23 | 90 | 1011.5 |
| 20260906010315 | 75 | 334 | 0.0 | 0.0 | 0.00 | 0.23 | 0.23 | 90 | 1011.5 |
| 20260906005810 | 75 | 334 | 0.0 | 0.0 | 0.00 | 0.23 | 0.23 | 90 | 1011.4 |
| 20260906005306 | 75 | 334 | 0.0 | 0.0 | 0.00 | 0.23 | 0.23 | 89 | 1011.3 |
| 20260906004757 | 75 | 334 | 0.0 | 0.0 | 0.00 | 0.23 | 0.23 | 89 | 1011.2 |
| 20260906004252 | 75 | 334 | 0.0 | 0.0 | 0.00 | 0.23 | 0.23 | 89 | 1011.1 |
| 20260906003747 | 75 | 334 | 0.0 | 0.0 | 0.00 | 0.23 | 0.23 | 89 | 1011.0 |
| 20260906003240 | 75 | 334 | 0.0 | 0.0 | 0.00 | 0.23 | 0.23 | 89 | 1011.0 |
| 20260906002733 | 75 | 334 | 0.0 | 0.0 | 0.00 | 0.23 | 0.23 | 89 | 1010.9 |
| 20260906002449 | 75 | 334 | 0.0 | 0.0 | 0.00 | 0.24 | 0.23 | 88 | 1010.9 |
| 20260906001721 | 75 | 334 | 0.0 | 0.0 | 0.00 | 0.24 | 0.23 | 88 | 1010.8 |
| 20260906001449 | 75 | 334 | 0.0 | 0.0 | 0.00 | 0.25 | 0.23 | 88 | 1010.7 |
| 20260906000723 | 76 | 334 | 0.0 | 0.0 | 0.00 | 0.26 | 0.23 | 88 | 1010.7 |
| 20260906000430 | 76 | 333 | 0.0 | 2.0 | 0.00 | 0.27 | 0.23 | 87 | 1010.4 |
| 20260905235657 | 76 | 334 | 0.0 | 2.0 | 0.00 | 0.29 | 0.23 | 87 | 1010.6 |
| 20260905235410 | 76 | 350 | 0.0 | 0.0 | 0.00 | 0.30 | 0.23 | 87 | 1010.4 |
| 20260905234645 | 76 | 336 | 0.0 | 0.0 | 0.00 | 0.32 | 0.23 | 87 | 1010.4 |